Miscellaneous Local Product
Issued by NWS Hastings, NE

Home | Current Version | Previous Version | Text Only | Print | Product List | Glossary Off
Versions: 1 2 3 4 5 6 7 8 9 10 11 12 13 14 15 16 17 18 19 20 21 22 23 24 25 26 27 28 29 30 31 32 33 34 35 36 37 38 39 40 41 42 43 44 45 46 47 48 49 50

000
AXUS43 KGID 280402
MISGRI

GID CWA HOURLY WEATHER ROUNDUP
NATIONAL WEATHER SERVICE HASTINGS NE
1100 PM CDT FRI MAR 27 2015

NOTE: "FAIR" INDICATES FEW OR NO CLOUDS BELOW 12,000 FEET WITH NO
SIGNIFICANT WEATHER AND/OR OBSTRUCTIONS TO VISIBILITY.

...SOUTH CENTRAL NEBRASKA...

CITY           SKY/WX    TMP DP  RH WIND       PRES   REMARKS
GRAND ISLAND   PTCLDY    34  24  67 SE8       30.02S WCI  27
HASTINGS       MOCLDY    38  24  57 S13       30.00F WCI  30
KEARNEY        MOCLDY    39  25  56 S12       30.00S WCI  32
ORD            PTCLDY    36  25  64 SE6       29.98R WCI  31
YORK           MOCLDY    32  27  80 S10       30.04S WCI  24
AURORA         CLOUDY    34  25  69 SE15      30.02S WCI  24
LEXINGTON      CLEAR     45  34  66 S6        29.97S
HOLDREGE       PTCLDY    44  32  60 SE8       29.99R
HEBRON         PTCLDY    34  23  66 SE7       30.05F WCI  27

...NEBRASKA PANHANDLE...

CITY           SKY/WX    TMP DP  RH WIND       PRES   REMARKS
CHADRON        MOCLDY    45  34  65 SW6       29.98R
ALLIANCE       MOCLDY    41  31  67 SW8       30.01R
SCOTTSBLUFF    PTCLDY    51  32  48 W6        30.02R
SIDNEY         PTCLDY    43  31  62 NW9       30.04R

...WESTERN AND NORTH CENTRAL NEBRASKA...

CITY           SKY/WX    TMP DP  RH WIND       PRES   REMARKS
VALENTINE      MOCLDY    40  31  70 W3        29.94R
AINSWORTH      CLEAR     39  31  72 SW5       29.94S
ONEILL         CLOUDY    35  29  79 S12       29.97S WCI  27
BROKEN BOW     CLEAR     34  29  82 CALM      29.96R
IMPERIAL         N/A     50  32  50 MISG      29.99R
NORTH PLATTE   PTCLDY    41  34  76 CALM      29.98R
MCCOOK         PTCLDY    47  35  63 NE8       29.97R

...EASTERN NEBRASKA...

CITY           SKY/WX    TMP DP  RH WIND       PRES   REMARKS
NORFOLK        CLOUDY    33  27  78 SE9       30.03S WCI  25
SO SIOUX CITY  CLOUDY    35  23  61 SE9       30.08F WCI  28
TEKAMAH        CLOUDY    36  21  54 SE9       30.10S WCI  29
COLUMBUS       CLOUDY    34  21  60 SE7       30.06S WCI  28
ALBION         CLOUDY    33  27  77 S9        30.01S WCI  26
OMAHA EPPLEY   CLOUDY    37  21  52 S12       30.11S WCI  29
OFFUTT AFB     CLOUDY    36  22  56 SE8       30.10F WCI  30
MILLARD        CLOUDY    37  22  55 SE7       30.10F WCI  31
LINCOLN        CLOUDY    36  22  56 SE12      30.09S WCI  28
NEBRASKA CITY  CLOUDY    36  20  53 SE8       30.10F WCI  29
BEATRICE       MOCLDY    36  24  61 SE8       30.07F WCI  30
FALLS CITY     CLOUDY    37  23  56 SE9       30.12F WCI  30

...NORTHERN KANSAS...

CITY           SKY/WX    TMP DP  RH WIND       PRES   REMARKS
GOODLAND       MOCLDY    50  35  56 SW9       30.03R
HILL CITY      PTCLDY    53  35  50 CALM      29.96S
NORTON         CLEAR     43  30  61 E6        29.96S
PHILLIPSBURG   PTCLDY    48  34  57 E9        29.99F
SMITH CENTER   PTCLDY    41  27  56 E14       30.02R
BELOIT         MOCLDY    43  25  49 SE14      30.04S
HAYS           MOCLDY    46  32  57 S8        29.98S
RUSSELL        CLOUDY    47  35  63 S14       29.97F
CONCORDIA      CLOUDY    39  25  57 SE12      30.05F WCI  32
SALINA         CLOUDY    47  30  51 SE10      30.07R
TOPEKA         CLOUDY    40  24  53 E8        30.14S WCI  34



USA.gov is the U.S. government's official web portal to all federal, state and local government web resources and services.